Time,TemperatureF,DewpointF,PressureIn,WindDirection,WindDirectionDegrees,WindSpeedMPH,WindSpeedGustMPH,Humidity,HourlyPrecipIn,Conditions,Clouds,dailyrainin,SoftwareType,DateUTC
2013-05-22 00:01:00,47.1,36.0,25.67,NNW,337,2.1,2.6,67,0.00,,,0.00,Rainwise IP-100,2013-05-22 06:01:00,
2013-05-22 00:06:00,46.7,36.0,25.66,NNW,337,0.0,2.6,67,0.00,,,0.00,Rainwise IP-100,2013-05-22 06:06:00,
2013-05-22 00:11:00,46.2,36.0,25.67,NNW,337,1.4,1.4,68,0.00,,,0.00,Rainwise IP-100,2013-05-22 06:11:00,
2013-05-22 00:16:00,46.0,36.0,25.67,NNW,337,2.6,2.6,68,0.00,,,0.00,Rainwise IP-100,2013-05-22 06:16:00,
2013-05-22 00:21:00,46.0,36.0,25.66,NNW,337,2.3,3.0,69,0.00,,,0.00,Rainwise IP-100,2013-05-22 06:21:00,
2013-05-22 00:26:00,46.1,37.0,25.66,NNW,337,2.3,3.5,70,0.00,,,0.00,Rainwise IP-100,2013-05-22 06:26:00,
2013-05-22 00:31:00,46.0,37.0,25.67,NNW,337,0.0,3.0,70,0.00,,,0.00,Rainwise IP-100,2013-05-22 06:31:00,
2013-05-22 00:36:00,45.7,37.0,25.66,NNW,337,2.3,3.3,70,0.00,,,0.00,Rainwise IP-100,2013-05-22 06:36:00,
2013-05-22 00:41:00,45.3,36.0,25.66,NNW,337,3.5,3.7,71,0.00,,,0.00,Rainwise IP-100,2013-05-22 06:41:00,
2013-05-22 00:46:00,45.0,37.0,25.66,NW,315,3.3,4.4,72,0.00,,,0.00,Rainwise IP-100,2013-05-22 06:46:00,
2013-05-22 00:51:00,44.9,37.0,25.66,NW,315,3.0,4.4,72,0.00,,,0.00,Rainwise IP-100,2013-05-22 06:51:00,
2013-05-22 00:56:00,44.8,37.0,25.66,NW,315,4.2,4.7,73,0.00,,,0.00,Rainwise IP-100,2013-05-22 06:56:00,
2013-05-22 01:01:00,44.5,37.0,25.66,NW,315,1.6,4.4,73,0.00,,,0.00,Rainwise IP-100,2013-05-22 07:01:00,
2013-05-22 01:06:00,44.1,36.0,25.66,NW,315,1.6,2.8,74,0.00,,,0.00,Rainwise IP-100,2013-05-22 07:06:00,
2013-05-22 01:11:00,43.7,37.0,25.66,NW,315,2.3,3.7,75,0.00,,,0.00,Rainwise IP-100,2013-05-22 07:11:00,
2013-05-22 01:16:00,43.7,37.0,25.66,NW,315,3.7,4.4,75,0.00,,,0.00,Rainwise IP-100,2013-05-22 07:16:00,
2013-05-22 01:21:00,43.9,37.0,25.66,WNW,292,2.8,5.1,76,0.00,,,0.00,Rainwise IP-100,2013-05-22 07:21:00,
2013-05-22 01:26:00,44.1,37.0,25.66,WNW,292,3.5,3.7,76,0.00,,,0.00,Rainwise IP-100,2013-05-22 07:26:00,
2013-05-22 01:31:00,43.7,37.0,25.66,NW,315,3.5,4.4,76,0.00,,,0.00,Rainwise IP-100,2013-05-22 07:31:00,
2013-05-22 01:36:00,43.2,37.0,25.65,NW,315,4.0,4.0,77,0.00,,,0.00,Rainwise IP-100,2013-05-22 07:36:00,
2013-05-22 01:41:00,43.1,37.0,25.66,NW,315,3.3,4.7,78,0.00,,,0.00,Rainwise IP-100,2013-05-22 07:41:00,
2013-05-22 01:46:00,43.1,37.0,25.66,WNW,292,1.4,3.7,79,0.00,,,0.00,Rainwise IP-100,2013-05-22 07:46:00,
2013-05-22 01:51:00,43.1,37.0,25.66,WNW,292,1.4,4.4,80,0.00,,,0.00,Rainwise IP-100,2013-05-22 07:51:00,
2013-05-22 01:56:00,43.0,37.0,25.66,WNW,292,2.6,3.7,80,0.00,,,0.00,Rainwise IP-100,2013-05-22 07:56:00,
2013-05-22 02:01:00,43.0,38.0,25.66,WNW,292,3.5,3.7,81,0.00,,,0.00,Rainwise IP-100,2013-05-22 08:01:00,
2013-05-22 02:06:00,42.9,38.0,25.66,West,270,3.3,4.4,81,0.00,,,0.00,Rainwise IP-100,2013-05-22 08:06:00,
2013-05-22 02:11:00,42.8,38.0,25.66,WNW,292,4.2,4.2,81,0.00,,,0.00,Rainwise IP-100,2013-05-22 08:11:00,
2013-05-22 02:16:00,42.9,38.0,25.66,WNW,292,3.0,4.2,81,0.00,,,0.00,Rainwise IP-100,2013-05-22 08:16:00,
2013-05-22 02:21:00,43.1,38.0,25.66,WNW,292,2.8,4.4,81,0.00,,,0.00,Rainwise IP-100,2013-05-22 08:21:00,
2013-05-22 02:26:00,43.2,38.0,25.65,West,270,3.3,4.7,81,0.00,,,0.00,Rainwise IP-100,2013-05-22 08:26:00,
2013-05-22 02:31:00,43.3,38.0,25.65,WNW,292,3.7,5.6,81,0.00,,,0.00,Rainwise IP-100,2013-05-22 08:31:00,
2013-05-22 02:36:00,43.4,38.0,25.65,NNW,337,3.7,4.4,81,0.00,,,0.00,Rainwise IP-100,2013-05-22 08:36:00,
2013-05-22 02:41:00,43.4,38.0,25.65,NNW,337,4.9,4.9,82,0.00,,,0.00,Rainwise IP-100,2013-05-22 08:41:00,
2013-05-22 02:46:00,43.4,38.0,25.65,NNW,337,4.4,6.8,82,0.00,,,0.00,Rainwise IP-100,2013-05-22 08:46:00,
2013-05-22 02:51:00,43.4,38.0,25.65,NNW,337,5.4,7.2,82,0.00,,,0.00,Rainwise IP-100,2013-05-22 08:51:00,
2013-05-22 02:56:00,43.1,38.0,25.66,NNW,337,4.4,6.8,82,0.00,,,0.00,Rainwise IP-100,2013-05-22 08:56:00,
2013-05-22 03:01:00,42.7,38.0,25.66,NNW,337,3.5,5.4,82,0.00,,,0.00,Rainwise IP-100,2013-05-22 09:01:00,
2013-05-22 03:06:00,42.5,38.0,25.65,NW,315,3.7,5.6,82,0.00,,,0.00,Rainwise IP-100,2013-05-22 09:06:00,
2013-05-22 03:11:00,42.6,38.0,25.65,NW,315,4.7,6.3,83,0.00,,,0.00,Rainwise IP-100,2013-05-22 09:11:00,
2013-05-22 03:16:00,42.6,38.0,25.66,NNW,337,2.1,5.8,83,0.00,,,0.00,Rainwise IP-100,2013-05-22 09:16:00,
2013-05-22 03:21:00,42.5,38.0,25.65,North,360,2.1,5.1,83,0.00,,,0.00,Rainwise IP-100,2013-05-22 09:21:00,
2013-05-22 03:26:00,42.2,37.0,25.66,NNW,337,2.8,4.9,83,0.00,,,0.00,Rainwise IP-100,2013-05-22 09:26:00,
2013-05-22 03:31:00,41.9,38.0,25.65,NNW,337,4.2,5.1,84,0.00,,,0.00,Rainwise IP-100,2013-05-22 09:31:00,
2013-05-22 03:36:00,41.9,38.0,25.65,NNW,337,2.6,5.4,84,0.00,,,0.00,Rainwise IP-100,2013-05-22 09:36:00,
2013-05-22 03:41:00,42.2,38.0,25.65,NNW,337,4.2,4.4,84,0.00,,,0.00,Rainwise IP-100,2013-05-22 09:41:00,
2013-05-22 03:46:00,42.2,38.0,25.65,NNW,337,2.3,4.7,84,0.00,,,0.00,Rainwise IP-100,2013-05-22 09:46:00,
2013-05-22 03:51:00,42.0,38.0,25.66,NW,315,4.0,5.4,84,0.00,,,0.00,Rainwise IP-100,2013-05-22 09:51:00,
2013-05-22 03:56:00,41.8,38.0,25.66,WNW,292,3.7,5.8,84,0.00,,,0.00,Rainwise IP-100,2013-05-22 09:56:00,
2013-05-22 04:01:00,41.4,37.0,25.66,WNW,292,2.8,4.9,84,0.00,,,0.00,Rainwise IP-100,2013-05-22 10:01:00,
2013-05-22 04:06:00,41.2,37.0,25.66,WNW,292,3.3,4.4,84,0.00,,,0.00,Rainwise IP-100,2013-05-22 10:06:00,
2013-05-22 04:11:00,41.1,37.0,25.66,WNW,292,3.5,4.7,85,0.00,,,0.00,Rainwise IP-100,2013-05-22 10:11:00,
2013-05-22 04:16:00,41.1,37.0,25.66,WNW,292,1.9,4.2,85,0.00,,,0.00,Rainwise IP-100,2013-05-22 10:16:00,
2013-05-22 04:21:00,41.1,37.0,25.66,WNW,292,2.3,4.9,85,0.00,,,0.00,Rainwise IP-100,2013-05-22 10:21:00,
2013-05-22 04:26:00,41.0,37.0,25.66,WNW,292,3.7,4.9,85,0.00,,,0.00,Rainwise IP-100,2013-05-22 10:26:00,
2013-05-22 04:31:00,40.8,37.0,25.66,West,270,2.1,4.7,86,0.00,,,0.00,Rainwise IP-100,2013-05-22 10:31:00,
2013-05-22 04:36:00,40.3,37.0,25.66,WNW,292,3.7,5.1,86,0.00,,,0.00,Rainwise IP-100,2013-05-22 10:36:00,
2013-05-22 04:41:00,40.0,37.0,25.66,WNW,292,3.5,5.1,86,0.00,,,0.00,Rainwise IP-100,2013-05-22 10:41:00,
2013-05-22 04:46:00,40.0,37.0,25.66,WNW,292,1.9,4.7,87,0.00,,,0.00,Rainwise IP-100,2013-05-22 10:46:00,
2013-05-22 04:51:00,39.9,37.0,25.66,West,270,3.7,4.4,87,0.00,,,0.00,Rainwise IP-100,2013-05-22 10:51:00,
2013-05-22 04:56:00,39.8,37.0,25.66,West,270,2.6,4.7,87,0.00,,,0.00,Rainwise IP-100,2013-05-22 10:56:00,
2013-05-22 05:01:00,39.7,37.0,25.66,WNW,292,3.7,4.7,87,0.00,,,0.00,Rainwise IP-100,2013-05-22 11:01:00,
2013-05-22 05:06:00,39.7,37.0,25.66,WNW,292,2.3,4.9,88,0.00,,,0.00,Rainwise IP-100,2013-05-22 11:06:00,
2013-05-22 05:11:00,39.6,37.0,25.66,WNW,292,3.0,4.2,88,0.00,,,0.00,Rainwise IP-100,2013-05-22 11:11:00,
2013-05-22 05:12:00,39.6,37.0,25.66,NW,315,2.1,4.7,88,0.00,,,0.00,Rainwise IP-100,2013-05-22 11:12:00,
2013-05-22 05:17:00,39.5,37.0,25.66,NW,315,5.8,6.5,88,0.00,,,0.00,Rainwise IP-100,2013-05-22 11:17:00,
2013-05-22 05:22:00,39.6,37.0,25.66,NW,315,4.9,6.5,88,0.00,,,0.00,Rainwise IP-100,2013-05-22 11:22:00,
2013-05-22 05:27:00,39.8,37.0,25.65,NNW,337,4.2,6.1,88,0.00,,,0.00,Rainwise IP-100,2013-05-22 11:27:00,
2013-05-22 05:28:00,39.8,37.0,25.65,NNW,337,6.5,6.5,88,0.00,,,0.00,Rainwise IP-100,2013-05-22 11:28:00,
2013-05-22 05:32:00,40.0,37.0,25.66,NNW,337,3.7,6.5,88,0.00,,,0.00,Rainwise IP-100,2013-05-22 11:32:00,
2013-05-22 05:37:00,40.2,37.0,25.66,NW,315,3.7,5.8,88,0.00,,,0.00,Rainwise IP-100,2013-05-22 11:37:00,
2013-05-22 05:42:00,40.3,37.0,25.66,WNW,292,6.1,6.1,87,0.00,,,0.00,Rainwise IP-100,2013-05-22 11:42:00,
2013-05-22 05:47:00,40.5,38.0,25.66,NW,315,2.8,6.5,87,0.00,,,0.00,Rainwise IP-100,2013-05-22 11:47:00,
2013-05-22 05:53:00,40.5,38.0,25.66,WNW,292,3.5,4.7,87,0.00,,,0.00,Rainwise IP-100,2013-05-22 11:53:00,
2013-05-22 05:58:00,40.3,37.0,25.66,WNW,292,3.7,5.4,87,0.00,,,0.00,Rainwise IP-100,2013-05-22 11:58:00,
2013-05-22 06:03:00,40.2,37.0,25.67,WNW,292,3.7,5.4,87,0.00,,,0.00,Rainwise IP-100,2013-05-22 12:03:00,
2013-05-22 06:08:00,40.2,37.0,25.66,WNW,292,2.3,4.9,87,0.00,,,0.00,Rainwise IP-100,2013-05-22 12:08:00,
2013-05-22 06:13:00,40.3,37.0,25.67,WNW,292,2.1,4.2,87,0.00,,,0.00,Rainwise IP-100,2013-05-22 12:13:00,
2013-05-22 06:18:00,40.3,37.0,25.67,WNW,292,4.2,4.9,87,0.00,,,0.00,Rainwise IP-100,2013-05-22 12:18:00,
2013-05-22 06:23:00,40.3,37.0,25.67,NW,315,3.3,4.4,87,0.00,,,0.00,Rainwise IP-100,2013-05-22 12:23:00,
2013-05-22 06:28:00,40.5,38.0,25.67,NNW,337,3.3,6.3,87,0.00,,,0.00,Rainwise IP-100,2013-05-22 12:28:00,
2013-05-22 06:33:00,40.9,38.0,25.67,NNW,337,2.8,3.7,87,0.00,,,0.00,Rainwise IP-100,2013-05-22 12:33:00,
2013-05-22 06:38:00,41.3,38.0,25.67,NW,315,3.5,4.0,87,0.00,,,0.00,Rainwise IP-100,2013-05-22 12:38:00,
2013-05-22 06:43:00,41.7,38.0,25.67,NNW,337,3.7,5.6,87,0.00,,,0.00,Rainwise IP-100,2013-05-22 12:43:00,
2013-05-22 06:48:00,42.1,38.0,25.67,NNW,337,1.6,6.3,86,0.00,,,0.00,Rainwise IP-100,2013-05-22 12:48:00,
2013-05-22 06:53:00,42.6,39.0,25.67,NW,315,5.4,5.4,86,0.00,,,0.00,Rainwise IP-100,2013-05-22 12:53:00,
2013-05-22 06:58:00,43.0,39.0,25.68,NW,315,3.3,6.3,85,0.00,,,0.00,Rainwise IP-100,2013-05-22 12:58:00,
2013-05-22 07:03:00,43.7,39.0,25.67,NW,315,3.3,5.6,84,0.00,,,0.00,Rainwise IP-100,2013-05-22 13:03:00,
2013-05-22 07:08:00,44.4,39.0,25.68,WNW,292,3.7,4.0,83,0.00,,,0.00,Rainwise IP-100,2013-05-22 13:08:00,
2013-05-22 07:13:00,45.0,40.0,25.67,WNW,292,2.6,4.2,83,0.00,,,0.00,Rainwise IP-100,2013-05-22 13:13:00,
2013-05-22 07:18:00,45.8,40.0,25.68,WNW,292,2.3,4.0,82,0.00,,,0.00,Rainwise IP-100,2013-05-22 13:18:00,
2013-05-22 07:23:00,46.4,40.0,25.68,WNW,292,3.5,4.0,81,0.00,,,0.00,Rainwise IP-100,2013-05-22 13:23:00,
2013-05-22 07:28:00,47.0,41.0,25.68,WNW,292,2.6,4.4,80,0.00,,,0.00,Rainwise IP-100,2013-05-22 13:28:00,
2013-05-22 07:33:00,47.7,41.0,25.68,WNW,292,3.0,4.7,79,0.00,,,0.00,Rainwise IP-100,2013-05-22 13:33:00,
2013-05-22 07:38:00,48.4,42.0,25.68,WNW,292,2.8,5.1,78,0.00,,,0.00,Rainwise IP-100,2013-05-22 13:38:00,
2013-05-22 07:43:00,49.4,42.0,25.68,WNW,292,2.3,4.4,77,0.00,,,0.00,Rainwise IP-100,2013-05-22 13:43:00,
2013-05-22 07:48:00,50.4,43.0,25.69,WNW,292,3.7,4.9,75,0.00,,,0.00,Rainwise IP-100,2013-05-22 13:48:00,
2013-05-22 07:53:00,51.2,43.0,25.68,WNW,292,3.5,4.2,73,0.00,,,0.00,Rainwise IP-100,2013-05-22 13:53:00,
2013-05-22 07:58:00,52.0,42.0,25.69,West,270,2.3,3.5,70,0.00,,,0.00,Rainwise IP-100,2013-05-22 13:58:00,
2013-05-22 08:03:00,52.7,42.0,25.69,West,270,3.7,5.1,68,0.00,,,0.00,Rainwise IP-100,2013-05-22 14:03:00,
2013-05-22 08:08:00,53.3,42.0,25.69,WSW,247,5.4,7.0,65,0.00,,,0.00,Rainwise IP-100,2013-05-22 14:08:00,
2013-05-22 08:13:00,53.7,41.0,25.69,West,270,3.0,6.3,63,0.00,,,0.00,Rainwise IP-100,2013-05-22 14:13:00,
2013-05-22 08:18:00,54.0,41.0,25.69,WSW,247,2.8,7.0,62,0.00,,,0.00,Rainwise IP-100,2013-05-22 14:18:00,
2013-05-22 08:23:00,54.6,41.0,25.69,SSW,202,2.8,5.6,60,0.00,,,0.00,Rainwise IP-100,2013-05-22 14:23:00,
2013-05-22 08:28:00,55.3,41.0,25.69,SW,225,5.4,5.4,58,0.00,,,0.00,Rainwise IP-100,2013-05-22 14:28:00,
2013-05-22 08:33:00,56.1,40.0,25.69,SSW,202,2.3,5.8,56,0.00,,,0.00,Rainwise IP-100,2013-05-22 14:33:00,
2013-05-22 08:38:00,56.5,40.0,25.69,SW,225,4.4,5.8,54,0.00,,,0.00,Rainwise IP-100,2013-05-22 14:38:00,
2013-05-22 08:43:00,56.7,39.0,25.69,SSW,202,0.0,6.1,52,0.00,,,0.00,Rainwise IP-100,2013-05-22 14:43:00,
2013-05-22 08:48:00,57.2,39.0,25.69,South,180,2.6,5.8,52,0.00,,,0.00,Rainwise IP-100,2013-05-22 14:48:00,
2013-05-22 08:53:00,57.6,39.0,25.69,SSW,202,4.2,5.4,50,0.00,,,0.00,Rainwise IP-100,2013-05-22 14:53:00,
2013-05-22 08:58:00,57.9,39.0,25.69,SSW,202,4.4,6.3,48,0.00,,,0.00,Rainwise IP-100,2013-05-22 14:58:00,
2013-05-22 09:03:00,58.5,39.0,25.69,SSE,157,1.9,5.1,48,0.00,,,0.00,Rainwise IP-100,2013-05-22 15:03:00,
2013-05-22 09:08:00,59.6,38.0,25.69,WSW,247,0.0,5.6,46,0.00,,,0.00,Rainwise IP-100,2013-05-22 15:08:00,
2013-05-22 09:13:00,60.4,39.0,25.69,SSW,202,3.7,9.1,45,0.00,,,0.00,Rainwise IP-100,2013-05-22 15:13:00,
2013-05-22 09:18:00,60.1,37.0,25.69,SSE,157,5.6,7.5,43,0.00,,,0.00,Rainwise IP-100,2013-05-22 15:18:00,
2013-05-22 09:23:00,60.1,37.0,25.68,SE,135,2.3,6.8,43,0.00,,,0.00,Rainwise IP-100,2013-05-22 15:23:00,
2013-05-22 09:28:00,60.4,37.0,25.68,SSE,157,3.5,8.6,42,0.00,,,0.00,Rainwise IP-100,2013-05-22 15:28:00,
2013-05-22 09:32:00,60.7,37.0,25.68,SSE,157,5.6,7.5,41,0.00,,,0.00,Rainwise IP-100,2013-05-22 15:32:00,
2013-05-22 09:37:00,61.1,37.0,25.68,SE,135,6.3,8.4,40,0.00,,,0.00,Rainwise IP-100,2013-05-22 15:37:00,
2013-05-22 09:42:00,60.8,36.0,25.68,ESE,112,6.3,8.6,39,0.00,,,0.00,Rainwise IP-100,2013-05-22 15:42:00,
2013-05-22 09:47:00,60.7,36.0,25.68,SSE,157,6.8,9.8,39,0.00,,,0.00,Rainwise IP-100,2013-05-22 15:47:00,
2013-05-22 09:52:00,60.9,36.0,25.68,SSE,157,2.8,10.5,38,0.00,,,0.00,Rainwise IP-100,2013-05-22 15:52:00,
2013-05-22 09:57:00,61.3,36.0,25.68,SSE,157,7.0,9.8,38,0.00,,,0.00,Rainwise IP-100,2013-05-22 15:57:00,
2013-05-22 10:02:00,61.9,36.0,25.68,SSE,157,5.6,9.6,38,0.00,,,0.00,Rainwise IP-100,2013-05-22 16:02:00,
2013-05-22 10:07:00,62.4,36.0,25.68,SSE,157,4.4,11.0,36,0.00,,,0.00,Rainwise IP-100,2013-05-22 16:07:00,
2013-05-22 10:12:00,62.4,36.0,25.68,South,180,12.6,14.2,36,0.00,,,0.00,Rainwise IP-100,2013-05-22 16:12:00,
2013-05-22 10:17:00,62.2,36.0,25.68,SSW,202,5.6,13.8,37,0.00,,,0.00,Rainwise IP-100,2013-05-22 16:17:00,
2013-05-22 10:22:00,62.6,36.0,25.68,ESE,112,7.7,10.0,37,0.00,,,0.00,Rainwise IP-100,2013-05-22 16:22:00,
2013-05-22 10:27:00,62.8,36.0,25.68,SSE,157,8.9,15.4,37,0.00,,,0.00,Rainwise IP-100,2013-05-22 16:27:00,
2013-05-22 10:32:00,62.8,36.0,25.68,ESE,112,6.8,10.5,37,0.00,,,0.00,Rainwise IP-100,2013-05-22 16:32:00,
2013-05-22 10:37:00,63.4,37.0,25.67,SSE,157,4.7,13.3,37,0.00,,,0.00,Rainwise IP-100,2013-05-22 16:37:00,
2013-05-22 10:42:00,63.5,37.0,25.68,South,180,9.8,12.8,37,0.00,,,0.00,Rainwise IP-100,2013-05-22 16:42:00,
2013-05-22 10:47:00,63.4,37.0,25.67,SSW,202,7.9,10.5,37,0.00,,,0.00,Rainwise IP-100,2013-05-22 16:47:00,
2013-05-22 10:52:00,63.5,36.0,25.67,SSE,157,8.6,16.8,36,0.00,,,0.00,Rainwise IP-100,2013-05-22 16:52:00,
2013-05-22 10:57:00,63.9,37.0,25.67,SSW,202,7.2,14.9,37,0.00,,,0.00,Rainwise IP-100,2013-05-22 16:57:00,
2013-05-22 11:02:00,64.6,37.0,25.68,SSE,157,8.6,14.5,36,0.00,,,0.00,Rainwise IP-100,2013-05-22 17:02:00,
2013-05-22 11:08:00,64.9,37.0,25.67,SSE,157,6.8,14.0,36,0.00,,,0.00,Rainwise IP-100,2013-05-22 17:08:00,
2013-05-22 11:13:00,65.3,37.0,25.67,SSE,157,7.0,17.3,35,0.00,,,0.00,Rainwise IP-100,2013-05-22 17:13:00,
2013-05-22 11:18:00,65.7,37.0,25.67,South,180,4.9,13.5,35,0.00,,,0.00,Rainwise IP-100,2013-05-22 17:18:00,
2013-05-22 11:23:00,65.8,37.0,25.67,SSE,157,6.1,13.5,34,0.00,,,0.00,Rainwise IP-100,2013-05-22 17:23:00,
2013-05-22 11:28:00,66.0,37.0,25.67,SSE,157,6.8,10.7,35,0.00,,,0.00,Rainwise IP-100,2013-05-22 17:28:00,
2013-05-22 11:33:00,66.3,38.0,25.66,South,180,6.5,17.5,35,0.00,,,0.00,Rainwise IP-100,2013-05-22 17:33:00,
2013-05-22 11:38:00,66.5,37.0,25.66,South,180,10.0,17.5,34,0.00,,,0.00,Rainwise IP-100,2013-05-22 17:38:00,
2013-05-22 11:43:00,66.9,38.0,25.66,South,180,6.8,16.6,34,0.00,,,0.00,Rainwise IP-100,2013-05-22 17:43:00,
2013-05-22 11:48:00,67.3,38.0,25.66,South,180,3.0,22.4,34,0.00,,,0.00,Rainwise IP-100,2013-05-22 17:48:00,
2013-05-22 11:53:00,67.7,38.0,25.65,South,180,10.0,14.2,34,0.00,,,0.00,Rainwise IP-100,2013-05-22 17:53:00,
2013-05-22 11:58:00,68.0,38.0,25.66,SSW,202,6.8,14.7,34,0.00,,,0.00,Rainwise IP-100,2013-05-22 17:58:00,
2013-05-22 12:03:00,68.0,38.0,25.66,South,180,8.6,18.7,34,0.00,,,0.00,Rainwise IP-100,2013-05-22 18:03:00,
2013-05-22 12:08:00,67.8,38.0,25.65,SSE,157,4.0,12.8,34,0.00,,,0.00,Rainwise IP-100,2013-05-22 18:08:00,
2013-05-22 12:13:00,67.7,38.0,25.65,SSW,202,10.7,15.9,34,0.00,,,0.00,Rainwise IP-100,2013-05-22 18:13:00,
2013-05-22 12:18:00,68.2,38.0,25.65,WSW,247,8.6,11.7,34,0.00,,,0.00,Rainwise IP-100,2013-05-22 18:18:00,
2013-05-22 12:23:00,68.6,39.0,25.64,South,180,11.7,11.9,34,0.00,,,0.00,Rainwise IP-100,2013-05-22 18:23:00,
2013-05-22 12:28:00,69.0,38.0,25.65,South,180,5.4,14.5,33,0.00,,,0.00,Rainwise IP-100,2013-05-22 18:28:00,
2013-05-22 12:33:00,69.3,39.0,25.64,South,180,11.9,13.3,33,0.00,,,0.00,Rainwise IP-100,2013-05-22 18:33:00,
2013-05-22 12:38:00,69.2,38.0,25.64,SW,225,6.1,13.5,32,0.00,,,0.00,Rainwise IP-100,2013-05-22 18:38:00,
2013-05-22 12:43:00,69.7,38.0,25.64,SSE,157,15.6,15.6,32,0.00,,,0.00,Rainwise IP-100,2013-05-22 18:43:00,
2013-05-22 12:48:00,70.4,39.0,25.63,SSW,202,6.8,15.6,32,0.00,,,0.00,Rainwise IP-100,2013-05-22 18:48:00,
2013-05-22 12:53:00,70.5,38.0,25.64,South,180,4.7,14.9,31,0.00,,,0.00,Rainwise IP-100,2013-05-22 18:53:00,
2013-05-22 12:58:00,70.1,38.0,25.63,SSE,157,3.5,15.9,31,0.00,,,0.00,Rainwise IP-100,2013-05-22 18:58:00,
2013-05-22 13:03:00,70.6,38.0,25.63,ESE,112,7.0,16.3,31,0.00,,,0.00,Rainwise IP-100,2013-05-22 19:03:00,
2013-05-22 13:08:00,71.3,39.0,25.63,SSE,157,4.0,13.5,31,0.00,,,0.00,Rainwise IP-100,2013-05-22 19:08:00,
2013-05-22 13:13:00,71.5,38.0,25.63,ESE,112,4.7,12.6,30,0.00,,,0.00,Rainwise IP-100,2013-05-22 19:13:00,
2013-05-22 13:18:00,71.6,38.0,25.63,SSW,202,4.7,11.0,30,0.00,,,0.00,Rainwise IP-100,2013-05-22 19:18:00,
2013-05-22 13:23:00,72.3,38.0,25.62,SSW,202,4.4,14.9,29,0.00,,,0.00,Rainwise IP-100,2013-05-22 19:23:00,
2013-05-22 13:28:00,72.6,38.0,25.62,SSE,157,9.3,17.0,29,0.00,,,0.00,Rainwise IP-100,2013-05-22 19:28:00,
2013-05-22 13:33:00,73.0,38.0,25.62,SSW,202,6.3,14.5,28,0.00,,,0.00,Rainwise IP-100,2013-05-22 19:33:00,
2013-05-22 13:38:00,73.7,39.0,25.62,ESE,112,3.0,17.0,28,0.00,,,0.00,Rainwise IP-100,2013-05-22 19:38:00,
2013-05-22 13:43:00,73.3,38.0,25.61,South,180,9.1,14.2,28,0.00,,,0.00,Rainwise IP-100,2013-05-22 19:43:00,
2013-05-22 13:48:00,73.4,38.0,25.61,SE,135,4.4,13.8,28,0.00,,,0.00,Rainwise IP-100,2013-05-22 19:48:00,
2013-05-22 13:53:00,74.0,39.0,25.61,SE,135,7.5,14.2,28,0.00,,,0.00,Rainwise IP-100,2013-05-22 19:53:00,
2013-05-22 13:58:00,74.5,38.0,25.61,SSW,202,5.1,14.5,27,0.00,,,0.00,Rainwise IP-100,2013-05-22 19:58:00,
2013-05-22 14:03:00,74.5,38.0,25.61,SE,135,6.5,11.2,27,0.00,,,0.00,Rainwise IP-100,2013-05-22 20:03:00,
2013-05-22 14:08:00,74.5,38.0,25.61,SSW,202,13.3,15.4,27,0.00,,,0.00,Rainwise IP-100,2013-05-22 20:08:00,
2013-05-22 14:13:00,74.6,38.0,25.61,SSE,157,6.1,15.4,27,0.00,,,0.00,Rainwise IP-100,2013-05-22 20:13:00,
2013-05-22 14:18:00,74.7,38.0,25.60,ESE,112,4.4,8.6,27,0.00,,,0.00,Rainwise IP-100,2013-05-22 20:18:00,
2013-05-22 14:23:00,75.1,38.0,25.60,SSE,157,4.9,7.2,26,0.00,,,0.00,Rainwise IP-100,2013-05-22 20:23:00,
2013-05-22 14:28:00,75.1,38.0,25.60,SSE,157,9.3,21.0,26,0.00,,,0.00,Rainwise IP-100,2013-05-22 20:28:00,
2013-05-22 14:33:00,75.1,38.0,25.60,SSE,157,3.5,11.7,26,0.00,,,0.00,Rainwise IP-100,2013-05-22 20:33:00,
2013-05-22 14:38:00,75.4,38.0,25.60,East,90,10.0,12.6,26,0.00,,,0.00,Rainwise IP-100,2013-05-22 20:38:00,
2013-05-22 14:43:00,75.7,37.0,25.60,SSE,157,9.3,11.7,25,0.00,,,0.00,Rainwise IP-100,2013-05-22 20:43:00,
2013-05-22 14:48:00,76.1,38.0,25.59,SE,135,0.0,14.0,25,0.00,,,0.00,Rainwise IP-100,2013-05-22 20:48:00,
2013-05-22 14:53:00,76.3,38.0,25.60,SSW,202,4.9,13.1,25,0.00,,,0.00,Rainwise IP-100,2013-05-22 20:53:00,
2013-05-22 14:58:00,76.0,37.0,25.60,WSW,247,11.0,11.4,24,0.00,,,0.00,Rainwise IP-100,2013-05-22 20:58:00,
2013-05-22 15:03:00,75.6,36.0,25.60,SE,135,3.7,13.3,24,0.00,,,0.00,Rainwise IP-100,2013-05-22 21:03:00,
2013-05-22 15:08:00,76.0,37.0,25.59,SSE,157,5.6,12.8,24,0.00,,,0.00,Rainwise IP-100,2013-05-22 21:08:00,
2013-05-22 15:13:00,76.4,36.0,25.59,South,180,10.0,13.8,23,0.00,,,0.00,Rainwise IP-100,2013-05-22 21:13:00,
2013-05-22 15:18:00,76.2,37.0,25.59,SSE,157,4.0,13.1,24,0.00,,,0.00,Rainwise IP-100,2013-05-22 21:18:00,
2013-05-22 15:23:00,76.3,36.0,25.59,SSW,202,2.1,8.4,23,0.00,,,0.00,Rainwise IP-100,2013-05-22 21:23:00,
2013-05-22 15:28:00,76.4,36.0,25.59,ESE,112,9.1,9.8,23,0.00,,,0.00,Rainwise IP-100,2013-05-22 21:28:00,
2013-05-22 15:33:00,76.3,36.0,25.59,ENE,67,3.0,10.0,23,0.00,,,0.00,Rainwise IP-100,2013-05-22 21:33:00,
2013-05-22 15:38:00,76.7,36.0,25.59,SSW,202,7.2,9.8,23,0.00,,,0.00,Rainwise IP-100,2013-05-22 21:38:00,
2013-05-22 15:43:00,77.2,36.0,25.59,South,180,6.5,13.1,22,0.00,,,0.00,Rainwise IP-100,2013-05-22 21:43:00,
2013-05-22 15:48:00,77.1,36.0,25.59,SSE,157,4.0,13.3,22,0.00,,,0.00,Rainwise IP-100,2013-05-22 21:48:00,
2013-05-22 15:53:00,77.1,36.0,25.59,ENE,67,3.0,7.2,22,0.00,,,0.00,Rainwise IP-100,2013-05-22 21:53:00,
2013-05-22 15:58:00,77.4,36.0,25.58,SSE,157,6.8,11.9,22,0.00,,,0.00,Rainwise IP-100,2013-05-22 21:58:00,
2013-05-22 16:03:00,77.1,35.0,25.58,ENE,67,7.0,16.8,21,0.00,,,0.00,Rainwise IP-100,2013-05-22 22:03:00,
2013-05-22 16:08:00,77.1,36.0,25.58,ESE,112,7.2,17.0,22,0.00,,,0.00,Rainwise IP-100,2013-05-22 22:08:00,
2013-05-22 16:13:00,77.2,36.0,25.58,ENE,67,6.8,16.8,22,0.00,,,0.00,Rainwise IP-100,2013-05-22 22:13:00,
2013-05-22 16:18:00,77.2,36.0,25.58,SSE,157,6.1,14.9,22,0.00,,,0.00,Rainwise IP-100,2013-05-22 22:18:00,
2013-05-22 16:23:00,77.4,35.0,25.58,NE,45,7.0,10.5,21,0.00,,,0.00,Rainwise IP-100,2013-05-22 22:23:00,
2013-05-22 16:28:00,77.6,35.0,25.58,SSE,157,10.3,16.3,21,0.00,,,0.00,Rainwise IP-100,2013-05-22 22:28:00,
2013-05-22 16:33:00,77.8,35.0,25.58,SSE,157,5.4,13.1,21,0.00,,,0.00,Rainwise IP-100,2013-05-22 22:33:00,
2013-05-22 16:38:00,77.6,33.0,25.58,South,180,10.5,10.7,20,0.00,,,0.00,Rainwise IP-100,2013-05-22 22:38:00,
2013-05-22 16:43:00,77.6,33.0,25.58,SE,135,5.1,10.5,20,0.00,,,0.00,Rainwise IP-100,2013-05-22 22:43:00,
2013-05-22 16:48:00,77.8,33.0,25.58,ESE,112,8.6,9.6,20,0.00,,,0.00,Rainwise IP-100,2013-05-22 22:48:00,
2013-05-22 16:53:00,77.7,33.0,25.58,South,180,2.6,9.8,20,0.00,,,0.00,Rainwise IP-100,2013-05-22 22:53:00,
2013-05-22 16:58:00,77.7,33.0,25.57,ESE,112,12.4,14.2,20,0.00,,,0.00,Rainwise IP-100,2013-05-22 22:58:00,
2013-05-22 17:03:00,77.3,35.0,25.58,SE,135,2.8,14.7,21,0.00,,,0.00,Rainwise IP-100,2013-05-22 23:03:00,
2013-05-22 17:08:00,77.4,35.0,25.58,South,180,3.0,11.4,21,0.00,,,0.00,Rainwise IP-100,2013-05-22 23:08:00,
2013-05-22 17:13:00,77.7,33.0,25.58,ESE,112,7.9,8.9,20,0.00,,,0.00,Rainwise IP-100,2013-05-22 23:13:00,
2013-05-22 17:18:00,77.7,33.0,25.58,ESE,112,3.3,13.5,20,0.00,,,0.00,Rainwise IP-100,2013-05-22 23:18:00,
2013-05-22 17:23:00,77.8,35.0,25.58,ESE,112,4.4,13.3,21,0.00,,,0.00,Rainwise IP-100,2013-05-22 23:23:00,
2013-05-22 17:28:00,77.9,35.0,25.58,SSE,157,14.7,14.7,21,0.00,,,0.00,Rainwise IP-100,2013-05-22 23:28:00,
2013-05-22 17:33:00,77.6,35.0,25.58,SSE,157,6.1,14.7,21,0.00,,,0.00,Rainwise IP-100,2013-05-22 23:33:00,
2013-05-22 17:38:00,77.5,35.0,25.57,East,90,8.4,11.2,21,0.00,,,0.00,Rainwise IP-100,2013-05-22 23:38:00,
2013-05-22 17:43:00,77.8,35.0,25.58,ESE,112,6.1,12.8,21,0.00,,,0.00,Rainwise IP-100,2013-05-22 23:43:00,
2013-05-22 17:48:00,78.0,35.0,25.58,SSE,157,6.3,14.0,21,0.00,,,0.00,Rainwise IP-100,2013-05-22 23:48:00,
2013-05-22 17:53:00,78.0,35.0,25.58,SE,135,4.7,11.9,21,0.00,,,0.00,Rainwise IP-100,2013-05-22 23:53:00,
2013-05-22 17:59:00,77.9,33.0,25.58,SSE,157,7.2,11.4,20,0.00,,,0.00,Rainwise IP-100,2013-05-22 23:59:00,
2013-05-22 18:04:00,77.8,33.0,25.58,ESE,112,4.2,13.1,20,0.00,,,0.00,Rainwise IP-100,2013-05-23 00:04:00,
2013-05-22 18:09:00,77.9,35.0,25.58,ESE,112,6.1,9.6,21,0.00,,,0.00,Rainwise IP-100,2013-05-23 00:09:00,
2013-05-22 18:14:00,77.8,33.0,25.58,SE,135,8.9,13.8,20,0.00,,,0.00,Rainwise IP-100,2013-05-23 00:14:00,
2013-05-22 18:19:00,77.5,33.0,25.58,SSE,157,6.1,11.2,20,0.00,,,0.00,Rainwise IP-100,2013-05-23 00:19:00,
2013-05-22 18:24:00,77.6,33.0,25.58,SSE,157,2.3,9.6,20,0.00,,,0.00,Rainwise IP-100,2013-05-23 00:24:00,
2013-05-22 18:29:00,77.8,33.0,25.58,ESE,112,7.9,12.1,20,0.00,,,0.00,Rainwise IP-100,2013-05-23 00:29:00,
2013-05-22 18:34:00,77.7,33.0,25.58,SSE,157,1.6,11.9,20,0.00,,,0.00,Rainwise IP-100,2013-05-23 00:34:00,
2013-05-22 18:39:00,77.6,33.0,25.58,SSE,157,3.0,10.3,20,0.00,,,0.00,Rainwise IP-100,2013-05-23 00:39:00,
2013-05-22 18:44:00,77.6,33.0,25.58,ESE,112,3.7,8.9,20,0.00,,,0.00,Rainwise IP-100,2013-05-23 00:44:00,
2013-05-22 18:49:00,77.7,35.0,25.59,SSE,157,4.4,12.6,21,0.00,,,0.00,Rainwise IP-100,2013-05-23 00:49:00,
2013-05-22 18:54:00,77.7,35.0,25.58,ESE,112,11.4,11.4,21,0.00,,,0.00,Rainwise IP-100,2013-05-23 00:54:00,
2013-05-22 18:59:00,77.5,35.0,25.58,East,90,9.3,14.7,21,0.00,,,0.00,Rainwise IP-100,2013-05-23 00:59:00,
2013-05-22 19:04:00,77.1,36.0,25.59,SSE,157,9.1,15.9,22,0.00,,,0.00,Rainwise IP-100,2013-05-23 01:04:00,
2013-05-22 19:09:00,77.0,36.0,25.59,ESE,112,7.0,15.2,22,0.00,,,0.00,Rainwise IP-100,2013-05-23 01:09:00,
2013-05-22 19:14:00,76.8,36.0,25.59,ESE,112,7.0,15.2,23,0.00,,,0.00,Rainwise IP-100,2013-05-23 01:14:00,
2013-05-22 19:19:00,76.5,36.0,25.59,ESE,112,10.3,12.8,23,0.00,,,0.00,Rainwise IP-100,2013-05-23 01:19:00,
2013-05-22 19:24:00,76.2,36.0,25.60,ESE,112,7.0,14.7,23,0.00,,,0.00,Rainwise IP-100,2013-05-23 01:24:00,
2013-05-22 19:29:00,75.8,36.0,25.60,ESE,112,5.8,9.6,23,0.00,,,0.00,Rainwise IP-100,2013-05-23 01:29:00,
2013-05-22 19:34:00,75.2,36.0,25.60,ESE,112,9.8,10.7,24,0.00,,,0.00,Rainwise IP-100,2013-05-23 01:34:00,
2013-05-22 19:39:00,74.7,37.0,25.61,ESE,112,6.3,12.8,25,0.00,,,0.00,Rainwise IP-100,2013-05-23 01:39:00,
2013-05-22 19:44:00,74.3,37.0,25.61,ESE,112,6.3,11.0,25,0.00,,,0.00,Rainwise IP-100,2013-05-23 01:44:00,
2013-05-22 19:49:00,73.9,37.0,25.61,ESE,112,6.1,14.5,26,0.00,,,0.00,Rainwise IP-100,2013-05-23 01:49:00,
2013-05-22 19:54:00,73.5,37.0,25.61,East,90,10.3,13.8,26,0.00,,,0.00,Rainwise IP-100,2013-05-23 01:54:00,
2013-05-22 19:59:00,73.0,37.0,25.62,SE,135,7.5,12.4,27,0.00,,,0.00,Rainwise IP-100,2013-05-23 01:59:00,
2013-05-22 20:04:00,72.5,37.0,25.62,East,90,5.8,14.7,27,0.00,,,0.00,Rainwise IP-100,2013-05-23 02:04:00,
2013-05-22 20:09:00,72.0,37.0,25.62,ESE,112,7.0,13.5,28,0.00,,,0.00,Rainwise IP-100,2013-05-23 02:09:00,
2013-05-22 20:14:00,71.5,38.0,25.62,East,90,9.3,12.8,29,0.00,,,0.00,Rainwise IP-100,2013-05-23 02:14:00,
2013-05-22 20:19:00,70.9,37.0,25.62,ESE,112,7.2,11.2,29,0.00,,,0.00,Rainwise IP-100,2013-05-23 02:19:00,
2013-05-22 20:24:00,70.4,38.0,25.63,ESE,112,9.8,12.6,30,0.00,,,0.00,Rainwise IP-100,2013-05-23 02:24:00,
2013-05-22 20:29:00,70.0,38.0,25.63,East,90,7.5,12.6,31,0.00,,,0.00,Rainwise IP-100,2013-05-23 02:29:00,
2013-05-22 20:34:00,69.6,38.0,25.63,SSE,157,2.8,12.8,31,0.00,,,0.00,Rainwise IP-100,2013-05-23 02:34:00,
2013-05-22 20:39:00,69.1,38.0,25.63,ENE,67,6.1,14.5,32,0.00,,,0.00,Rainwise IP-100,2013-05-23 02:39:00,
2013-05-22 20:44:00,68.8,38.0,25.63,ENE,67,9.8,16.6,32,0.00,,,0.00,Rainwise IP-100,2013-05-23 02:44:00,
2013-05-22 20:49:00,68.4,38.0,25.63,East,90,10.3,13.5,33,0.00,,,0.00,Rainwise IP-100,2013-05-23 02:49:00,
2013-05-22 20:54:00,68.0,38.0,25.64,East,90,8.4,15.4,33,0.00,,,0.00,Rainwise IP-100,2013-05-23 02:54:00,
2013-05-22 20:59:00,67.8,38.0,25.64,East,90,12.4,14.7,34,0.00,,,0.00,Rainwise IP-100,2013-05-23 02:59:00,
2013-05-22 21:04:00,67.6,38.0,25.65,ENE,67,12.4,19.8,34,0.00,,,0.00,Rainwise IP-100,2013-05-23 03:04:00,
2013-05-22 21:09:00,67.2,38.0,25.65,ENE,67,12.6,16.6,35,0.00,,,0.00,Rainwise IP-100,2013-05-23 03:09:00,
2013-05-22 21:14:00,66.9,38.0,25.66,East,90,9.6,16.6,35,0.00,,,0.00,Rainwise IP-100,2013-05-23 03:14:00,
2013-05-22 21:19:00,66.4,38.0,25.66,ENE,67,10.5,15.6,36,0.00,,,0.00,Rainwise IP-100,2013-05-23 03:19:00,
2013-05-22 21:24:00,65.8,39.0,25.66,ENE,67,15.4,16.8,37,0.00,,,0.00,Rainwise IP-100,2013-05-23 03:24:00,
2013-05-22 21:29:00,65.0,39.0,25.66,ENE,67,17.3,19.6,38,0.00,,,0.00,Rainwise IP-100,2013-05-23 03:29:00,
2013-05-22 21:34:00,64.4,39.0,25.66,ENE,67,18.2,22.6,39,0.00,,,0.00,Rainwise IP-100,2013-05-23 03:34:00,
2013-05-22 21:39:00,64.4,39.0,25.67,East,90,14.5,21.9,40,0.00,,,0.00,Rainwise IP-100,2013-05-23 03:39:00,
2013-05-22 21:44:00,64.4,40.0,25.66,ENE,67,17.0,25.2,41,0.00,,,0.00,Rainwise IP-100,2013-05-23 03:44:00,
2013-05-22 21:49:00,64.1,40.0,25.68,ENE,67,13.8,25.6,41,0.00,,,0.00,Rainwise IP-100,2013-05-23 03:49:00,
2013-05-22 21:54:00,63.8,40.0,25.67,ENE,67,17.0,25.4,42,0.00,,,0.00,Rainwise IP-100,2013-05-23 03:54:00,
2013-05-22 21:59:00,63.6,40.0,25.68,ENE,67,18.9,24.9,42,0.00,,,0.00,Rainwise IP-100,2013-05-23 03:59:00,
2013-05-22 22:01:00,63.5,40.0,25.67,ENE,67,17.7,24.7,42,0.00,,,0.00,Rainwise IP-100,2013-05-23 04:01:00,
2013-05-22 22:06:00,63.3,40.0,25.68,ENE,67,14.5,25.2,43,0.00,,,0.00,Rainwise IP-100,2013-05-23 04:06:00,
2013-05-22 22:11:00,62.9,41.0,25.68,ENE,67,16.6,23.6,44,0.00,,,0.00,Rainwise IP-100,2013-05-23 04:11:00,
2013-05-22 22:16:00,62.2,40.0,25.68,ENE,67,15.4,23.3,45,0.00,,,0.00,Rainwise IP-100,2013-05-23 04:16:00,
2013-05-22 22:21:00,61.7,40.0,25.68,ENE,67,15.2,21.7,46,0.00,,,0.00,Rainwise IP-100,2013-05-23 04:21:00,
2013-05-22 22:26:00,61.4,41.0,25.68,ENE,67,19.6,25.2,47,0.00,,,0.00,Rainwise IP-100,2013-05-23 04:26:00,
2013-05-22 22:31:00,61.1,41.0,25.69,ENE,67,20.1,24.2,48,0.00,,,0.00,Rainwise IP-100,2013-05-23 04:31:00,
2013-05-22 22:50:00,59.8,41.0,25.70,ENE,67,17.3,26.6,50,0.00,,,0.00,Rainwise IP-100,2013-05-23 04:50:00,
2013-05-22 22:53:00,59.7,41.0,25.70,ENE,67,25.4,26.6,50,0.00,,,0.00,Rainwise IP-100,2013-05-23 04:53:00,
2013-05-22 22:58:00,59.5,41.0,25.70,ENE,67,17.3,26.3,51,0.00,,,0.00,Rainwise IP-100,2013-05-23 04:58:00,
2013-05-22 23:03:00,59.2,41.0,25.70,ENE,67,21.0,26.8,52,0.00,,,0.00,Rainwise IP-100,2013-05-23 05:03:00,
2013-05-22 23:08:00,59.0,41.0,25.70,ENE,67,19.8,24.9,52,0.00,,,0.00,Rainwise IP-100,2013-05-23 05:08:00,
2013-05-22 23:13:00,58.8,42.0,25.71,ENE,67,20.3,23.6,53,0.00,,,0.00,Rainwise IP-100,2013-05-23 05:13:00,
2013-05-22 23:18:00,58.5,42.0,25.71,ENE,67,17.5,24.5,54,0.00,,,0.00,Rainwise IP-100,2013-05-23 05:18:00,
2013-05-22 23:23:00,58.3,41.0,25.71,ENE,67,20.8,23.6,54,0.00,,,0.00,Rainwise IP-100,2013-05-23 05:23:00,
2013-05-22 23:28:00,58.1,42.0,25.71,ENE,67,18.2,22.2,55,0.00,,,0.00,Rainwise IP-100,2013-05-23 05:28:00,
2013-05-22 23:33:00,57.9,42.0,25.71,ENE,67,19.6,27.0,55,0.00,,,0.00,Rainwise IP-100,2013-05-23 05:33:00,
2013-05-22 23:38:00,57.7,42.0,25.71,NE,45,16.1,24.9,56,0.00,,,0.00,Rainwise IP-100,2013-05-23 05:38:00,
2013-05-22 23:43:00,57.6,42.0,25.71,ENE,67,18.9,23.3,56,0.00,,,0.00,Rainwise IP-100,2013-05-23 05:43:00,
2013-05-22 23:48:00,57.4,42.0,25.72,ENE,67,22.9,23.3,56,0.00,,,0.00,Rainwise IP-100,2013-05-23 05:48:00,
2013-05-22 23:53:00,57.3,42.0,25.72,ENE,67,22.4,24.2,57,0.00,,,0.00,Rainwise IP-100,2013-05-23 05:53:00,
2013-05-22 23:58:00,57.1,42.0,25.72,ENE,67,16.8,24.2,57,0.00,,,0.00,Rainwise IP-100,2013-05-23 05:58:00,